Regional Weather Roundup
Issued by NWS Sterling, VA

Home | Current Version | Previous Version | Graphics & Text | Print | Product List | Glossary On
Versions: 1 2 3 4 5 6 7 8 9 10 11 12 13 14 15 16 17 18 19 20 21 22 23 24 25 26 27 28 29 30 31 32 33 34 35 36 37 38 39 40 41 42 43 44 45 46 47 48 49 50
000
ASUS41 KLWX 272010
RWRLWX

REGIONAL WEATHER ROUNDUP
NATIONAL WEATHER SERVICE BALTIMORE MD/WASHINGTON DC
400 PM EDT MON APR 27 2015

Note: "FAIR" indicates few or no clouds below 12,000 feet
with no significant weather and/or obstructions to visibility.
 TC=TEMPERATURE CELSIUS

 * =Non NWS site. Station does not report precipitation (e.g. rain,
    snow, etc.), thunder, or fog.

DCZ001-MDZ009-015-VAZ040>042-051-053>054-272100-
WASHINGTON METRO

CITY           SKY/WX    TMP DP  RH WIND       PRES   REMARKS
WASHINGTON NAT PTSUNNY   62  34  35 NW17G23   29.78F
DULLES         CLOUDY    55  32  41 NW15      29.79F
ANDREWS AFB    PTSUNNY   57  32  38 NW15G22   29.76F
FT BELVOIR     PTSUNNY   58  32  37 NW13      29.78F
COLLEGE PARK*  CLOUDY    59  32  36 NW10G16   29.77S
LEESBURG*      CLOUDY    55  36  47 NW9       29.80S
MANASSAS*      CLOUDY    57  32  38 NW13G29   29.80F
GAITHERSBURG*  CLOUDY    54  30  40 NW14G21   29.81S

$$

MDZ006>007-011-014-272100-
BALTIMORE METRO

CITY           SKY/WX    TMP DP  RH WIND       PRES   REMARKS
BWI AIRPORT    PTSUNNY   56  31  38 NW9G21    29.75F
MD SCIENCE CTR   N/A     58  29  33 MISG      29.76S
MARTIN STATE   PTSUNNY   57  36  44 W15G23    29.76F
ANNAPOLIS      CLOUDY    57  33  40 NW10      29.75F
FORT MEADE*    CLOUDY    57  32  38 W13       29.78F

$$

MDZ012-015-019>023-272100-
MARYLAND EASTERN SHORE

CITY           SKY/WX    TMP DP  RH WIND       PRES   REMARKS
OCEAN CITY     CLOUDY    59  31  34 NW13      29.72F
SALISBURY      PTSUNNY   59  32  36 W14G22    29.73F
BAY BRIDGE AP*   N/A    N/A N/A N/A NW8       29.76S
CAMBRIDGE*     MOSUNNY   61  34  36 NW15G24   29.75S
EASTON*        PTSUNNY   59  37  44 NW15G23   29.78F

$$

MDZ017>025-272100-
SOUTHERN MARYLAND

CITY           SKY/WX    TMP DP  RH WIND       PRES   REMARKS
PATUXENT RIVER PTSUNNY   59  36  42 NW17      29.75F
ST INIGOES     CLOUDY    61  34  36 NW9G18    29.75F
LEONARDTOWN*   CLOUDY    59  32  36 NW6G20    29.77F

$$

MDZ003>005-272100-
NORTH CENTRAL MARYLAND

CITY           SKY/WX    TMP DP  RH WIND       PRES   REMARKS
FREDERICK*     PTSUNNY   57  27  30 NW12G21   29.81R
HAGERSTOWN APT PTSUNNY   57  35  43 NW12      29.79S
WESTMINSTER*   NOT AVBL

$$

MDZ501>502-272100-
WESTERN MARYLAND

CITY           SKY/WX    TMP DP  RH WIND       PRES   REMARKS
OAKLAND*       CLOUDY    37  37 100 W10G17    29.83F
CUMBERLAND*    PTSUNNY   52  34  50 W10G21    29.88R

$$

VAZ025>031-272100-
SHENANDOAH VALLEY

CITY           SKY/WX    TMP DP  RH WIND       PRES   REMARKS
WINCHESTER*    CLOUDY    57  27  30 NW15G21   29.80F
FRONT ROYAL*   CLOUDY    54  32  43 NW6       29.80F
LURAY*         CLOUDY    55  34  44 NW7       29.82F
NEW MARKET*    CLOUDY    56  33  41 NW6       29.82F
STAUNTON*      CLOUDY    55  29  38 N9G17     29.84S
WAYNESBORO*    CLOUDY    53  30  41 NW15G25   29.82S

$$

WVZ021-048>050-054>055-272100-
EASTERN WEST VIRGINIA PANHANDLE

CITY           SKY/WX    TMP DP  RH WIND       PRES   REMARKS
MARTINSBURG    CLOUDY    56  32  40 NW8G18    29.80F
PETERSBURG*    CLOUDY    54  31  42 W20G26    29.85F

$$

VAZ036>039-050-272100-
CENTRAL FOOTHILLS

CITY           SKY/WX    TMP DP  RH WIND       PRES   REMARKS
CHARLOTTESVILL MOSUNNY   59  30  33 N10G25    29.80F
CULPEPER*      PTSUNNY   59  32  36 W10       29.81F
ORANGE*        CLOUDY    61  32  33 W15G21    29.81F
GORDONSVILLE*  MOCLDY    57  30  35 NW7G23    29.80S
WARRENTON*     PTSUNNY   59  37  43 NW9G17    29.80F

$$

VAZ055>057-272100-
NORTH AND CENTRAL PIEDMONT

CITY           SKY/WX    TMP DP  RH WIND       PRES   REMARKS
FREDERICKSBRG* PTSUNNY   62  35  36 NW16G23   29.78S
STAFFORD*      PTSUNNY   59  32  36 NW20      29.83S

$$

NCZ024-NYZ072-PAZ021-071-VAZ022-071-272100-
OTHER REGIONAL OBSERVATIONS

CITY           SKY/WX    TMP DP  RH WIND       PRES   REMARKS
NEW YORK CITY  CLOUDY    61  30  31 N8        29.67F
PHILADELPHIA   CLOUDY    59  30  33 NW16G23   29.71F
PITTSBURGH     CLOUDY    45  36  70 NW17      29.91S
ROANOKE        PTSUNNY   57  31  37 N17G25    29.86R
RICHMOND       PTSUNNY   63  33  32 N12       29.75F
RALEIGH        MOSUNNY   66  36  32 W8G17     29.79S

$$

ANZ530>537-272100-
MARINE OBSERVATIONS

STATION/POSITION TIME  TEMP    WIND        PRES
                       AIR SEA DIR/SP/G
                 (UTC) (F)     (DEG/KT/KT) (MB)
THOMAS PT LIGHT  2000   56 54  300/ 15/ 18 1008.0F
BALT KEY BRIDGE  1900   56     280/ 12/ 14 1007.6F
COVE POINT       1900   54      20/  4/  5 1008.6F
LEWISETTA        1900   59 58              1007.8S
SOLOMONS ISLAND  1900      56                N/A
PINEY POINT      1900          340/ 19/ 20   N/A

$$




USA.gov is the U.S. government's official web portal to all federal, state and local government web resources and services.